SL-8 R/B, 3131

Orbit data source: Space-Track

SL-8 R/B, 3131 is space debris in LEO originally from a launch on Tue, 20 Feb 1968 UTC launched from the Plesetsk Missile And Space Complex (PKMTR). Debris objects in space refer to the collection of defunct objects orbiting the Earth. Examples of debris include non-operational satellites, rocket bodies, and fragments generated from explosions, collisions, or faulty payload assembly.

Loading next visibility...
Identifier
3131, 1968-011B
Orbit
LEO
Country
Flag of CISCIS
Related business
Manufacturer
Yuzhnoe
Mission
Spacecraft
Bus & Motor
S3, Unknown motor
Mass
1,434 kg wet, 1,434 kg dry
Launch date (UTC)
1968-02-20 (58 years ago)
Launch vehicle
Unknown
Launch site
Plesetsk Missile And Space Complex (PKMTR)
Object type
Payload
Rocket body
Debris
Shape & HBR
Cyl, 2.1 m
Radar Cross Section
10.179 m², Large (>1 m²)

Expand to show TLE details & history
Last TLE update: 15 hours ago

TLE from 15 hours ago
0 SL-8 R/B
1 03131U 68011B   25242.87701529 -.00000020  00000-0 -28667-5 0  9996
2 03131  74.0505 188.5380 0013526  91.4984 268.7654 13.18022105767108
Epoch: 2025-08-30T21:02Z
TLE epoch observation values (Epoch: 2025-08-30T21:02:54.121Z)
Latitude
-0.00003°
Longitude
-106.49253°
Altitude
1,194.986 km
Speed
7.256 km/s
True Right ascension
12h 34m 09s
True Declination
0° 00' 00"
Sunlit
Object was in daylight at epoch
Visualization orbit readout
Latitude
Unknown
Longitude
Unknown
Altitude
Unknown
Speed
Unknown
Apparent Right ascension
Unknown
Apparent Declination
Unknown
Sunlit
N/A
Visualization observer readout
Local Sidereal Time
03:31:58
Azimuth
Unknown
Elevation
Unknown
Doppler factor
Unknown
Orbital elements
Apogee altitude
1,200.276 km
Perigee altitude
1,179.803 km
Semi-major axis
7,568.177 km
Eccentricity
0.00135
Inclination
74.0505°
RAAN
188.538°
Arg. of periapsis
91.4984°
True anomaly
268.61045°
Mean anomaly
268.7654°
Eccentric anomaly
268.68792°
Mean motion
3.29652 °/min
Orbital period
109.21 mins
BSTAR
-0.0000028667
Loading maneuver chart data...
Computing Atmospheric mass density...
Loading historical data...
Loading historical data...
Loading historical data...
Loading historical data...
Loading historical data...
Loading historical data...
Loading historical data...
Other satellites on launch #11 in the year 1968 (1968-02-20 UTC)

Documentation

Showing up to 5 results
|